#timestamp,LO_Frequency,Hit,StdDev 
1624334415.7,286046996.6,N
1624334435.5,286046998.4,N
1624334455.4,286047001.0,N
1624334475.2,286046998.1,N
1624334495.1,286046999.3,N
1624334496.0,286046999.3,N
1624334515.8,286046998.1,N
1624334535.6,286047000.9,N
1624334555.5,286047000.5,N
1624334575.3,286047000.4,N
1624334595.1,286047000.6,N
1624334615.9,286047000.2,N
1624334635.7,286046998.2,N
1624334655.6,286046998.5,N
1624334675.4,286047001.2,N
1624334695.2,286047000.8,N
1624334715.1,286047000.1,N
1624334716.0,286047000.1,N
1624334735.8,286047000.1,N
1624334755.6,286046999.8,N
1624334775.5,286047002.6,N
1624334795.3,286046999.7,N
1624334815.2,286046999.9,N
1624334835.9,286047000.5,N
1624334855.7,286047001.2,N
1624334875.6,286047000.5,N
1624334895.4,286046999.9,N
1624334915.3,286046999.8,N
1624334935.1,286047000.7,N
1624334936.0,286047000.7,N
1624334955.8,286047002.8,N
1624334975.7,286046999.8,N
1624334995.5,286047000.1,N
1624335015.3,286047000.3,N
1624335035.2,286047000.8,N
1624335055.0,286046998.2,N
1624335055.9,286046998.2,N
1624335075.8,286047000.3,N
1624335095.6,286047000.3,N
1624335115.4,286047002.4,N
1624335135.3,286047000.8,N
1624335155.1,286047000.5,N
1624335175.9,286047000.5,N
1624335195.7,286047000.0,N
1624335215.5,286047002.6,N
1624335235.4,286047011.9,Y
1624335255.2,286047002.8,P
1624335275.0,286047002.2,N
1624335275.9,286047002.2,N
1624335295.8,286047000.0,N
1624335315.6,286047002.7,N
1624335335.5,286047000.3,N
1624335355.3,286047002.7,N
1624335375.1,286046999.9,N
1624335395.9,286047000.4,N
1624335415.7,286047002.8,N
1624335435.6,286047000.2,N
1624335455.4,286047000.2,N
1624335475.2,286046998.2,N
1624335495.1,286047000.6,N
1624335496.0,286047000.6,N
1624335515.8,286046999.8,N
1624335535.6,286047000.9,N
1624335555.5,286047000.5,N
1624335575.3,286047000.0,N
1624335595.2,286047000.9,N
1624335615.9,286047000.3,N
1624335635.7,286046999.8,N
1624335655.6,286047000.5,N
1624335675.4,286047000.4,N
1624335695.2,286047000.9,N
1624335715.1,286046998.5,N
1624335716.0,286046998.5,N
1624335735.8,286046998.7,N
1624335755.7,286046998.6,N
1624335775.5,286046999.0,N
1624335795.3,286046997.0,N
1624335815.2,286046998.6,N
1624335835.0,286046998.7,N
1624335835.9,286046998.7,N
1624335855.8,286046998.1,N
1624335875.6,286046998.1,N
1624335895.4,286046998.5,N
1624335915.3,286047000.7,N
1624335935.1,286046998.1,N
1624335955.9,286047000.4,N
1624335975.7,286047000.5,N
1624335995.5,286047000.6,N
1624336015.4,286047000.0,N
1624336035.2,286047000.5,N
1624336055.0,286046998.5,N
1624336055.9,286046998.5,N
1624336075.8,286047000.8,N
1624336095.6,286046999.9,N
1624336115.5,286046999.9,N
1624336135.3,286047000.2,N
1624336155.1,286046999.9,N
1624336175.9,286046999.9,N
1624336195.7,286047000.2,N
1624336215.6,286047002.0,N
1624336235.4,286047002.5,N
1624336255.2,286047004.4,Y
1624336275.1,286047001.6,P
1624336276.0,286047001.6,N
1624336295.8,286047001.9,N
1624336315.7,286047001.6,N
1624336335.5,286047002.4,N
1624336355.3,286047001.4,N
1624336375.2,286047001.4,N
1624336395.0,286047004.4,Y
1624336395.9,286047004.4,P
1624336415.8,286047002.7,N
1624336435.6,286047002.3,N
1624336455.4,286047001.9,N
1624336475.3,286047003.6,Y
1624336495.1,286047000.6,P
1624336515.8,286047000.9,N
1624336535.7,286046998.3,N
1624336555.5,286047001.1,N
1624336575.4,286047001.0,N
1624336595.2,286047001.2,N
1624336615.0,286047000.0,N
1624336615.9,286047000.0,N
1624336635.8,286047000.7,N
1624336655.6,286047001.1,N
1624336675.5,286046998.3,N
1624336695.3,286046999.0,N
1624336715.1,286046999.1,N
1624336735.9,286046997.0,N
1624336755.7,286046999.4,N
1624336775.6,286046997.1,N
1624336795.4,286046998.8,N
1624336815.2,286046998.7,N
1624336835.1,286047001.1,N
1624336836.0,286047001.1,N
1624336855.8,286046998.4,N
1624336875.6,286047001.0,N
1624336895.5,286047000.3,N
1624336915.3,286047001.1,N
1624336935.2,286046998.3,N
1624336955.9,286046996.9,N
1624336975.7,286046997.8,N
1624336995.6,286046995.7,N
1624337015.4,286046995.3,N
1624337035.2,286046997.6,N
1624337055.1,286046995.0,N
1624337056.0,286046995.0,N
1624337075.8,286046993.3,Y
1624337095.7,286046997.6,P
1624337115.5,286046995.2,P
1624337135.3,286046996.2,N
1624337155.2,286046995.6,Y
1624337175.0,286046999.4,P
1624337175.9,286046999.4,N
1624337195.8,286046999.1,N
1624337215.6,286046999.3,N
1624337235.4,286046998.1,N
1624337255.3,286046998.2,N
1624337275.1,286046998.4,N
1624337295.8,286046999.4,N
1624337315.7,286046998.2,N
1624337335.5,286046999.1,N
1624337355.4,286047001.1,N
1624337375.2,286047000.4,N
1624337395.0,286047000.3,N
1624337395.9,286047000.3,N
1624337415.8,286047001.1,N
1624337435.6,286046998.1,N
1624337455.5,286046998.4,N
1624337475.3,286047000.8,N
1624337495.1,286046998.9,N
1624337515.9,286046998.5,N
1624337535.7,286046996.7,Y
1624337555.5,286046998.5,P
1624337575.4,286046998.3,P
1624337595.2,286046998.4,P
1624337615.1,286046998.5,Y
1624337616.0,286046998.5,P
1624337635.8,286047000.3,P
1624337655.6,286046998.1,N
1624337675.5,286046996.9,Y
1624337695.3,286046999.4,P
1624337715.2,286046998.6,P
1624337735.9,286047000.9,N
1624337755.7,286047001.0,N
1624337775.6,286046999.9,N
1624337795.4,286047002.6,N
1624337815.2,286047004.0,Y
1624337835.1,286047004.4,P
1624337836.0,286047004.4,N
1624337855.8,286047004.0,N
1624337875.7,286047003.4,N
1624337895.5,286047005.5,Y
1624337915.3,286047000.1,P
1624337935.2,286047002.1,N
1624337955.3,286047002.7,N
1624337975.1,286046999.8,N
1624337976.0,286046999.8,N
1624337995.8,286047001.0,N
